Change the Weather History Date:

Tuesday, December 25, 2012

  Actual Average (KALS) Record (KALS)
Temperature  
Mean Temperature 8 °F 16 °F  
Max Temperature 14 °F 34 °F 60 °F (1942)
Min Temperature 3 °F -2 °F -27 °F (1974)
Degree Days  
Heating Degree Days 56 49  
Month to date heating degree days 1168  
Since 1 July heating degree days 3343  
Cooling Degree Days 0 0  
Month to date cooling degree days 0  
Year to date cooling degree days 51  
Moisture  
Dew Point 5 °F    
Average Humidity 85    
Maximum Humidity 92    
Minimum Humidity 67    
Precipitation  
Precipitation 0.00 in 0.01 in 0.23 in (1942)
Month to date precipitation 0.29  
Year to date precipitation 7.25  
Snow  
Snow 0.00 in 0.10 in 3.50 in (1942)
Month to date snowfall 3.7  
Since 1 July snowfall 9.5  
Snow Depth -    
Sea Level Pressure  
Sea Level Pressure 29.85 in    
Wind  
Wind Speed 9 mph (WSW)    
Max Wind Speed 21 mph    
Max Gust Speed 21 mph    
Visibility 9 miles    
Events Fog , Snow    
T = Trace of Precipitation, MM = Missing Value Source: NWS Daily Summary

Daily Weather History Graph

Daily Weather History Graph

Search for Another Location

Airport or City:

Trip Planner

Search our weather history database for the weather conditions in past years. The results will help you decide how hot, cold, wet, or windy it might be!

Date:

Astronomy

Dec. 25, 2012 Rise Set
Actual Time 7:20 AM MST 4:55 PM MST
Civil Twilight 6:50 AM MST 5:24 PM MST
Nautical Twilight 6:17 AM MST 5:57 PM MST
Astronomical Twilight 5:46 AM MST 6:29 PM MST
Moon 3:04 PM MST (12/25) 4:55 AM MST (12/25)
Length of Visible Light 10h 33m
Length of Day
9h 35m
Waxing Gibbous, 94% of the Moon is Illuminated
Dec 25
Waxing Gibbous
Dec 28
Full
Jan 4
Last Quarter
Jan 11
New
Jan 18
First Quarter

Hourly Weather History & Observations

Time (MST) Temp. Windchill Dew Point Humidity Pressure Visibility Wind Dir Wind Speed Gust Speed Precip Events Conditions
12:05 AM 8.6 °F -4.7 °F 5.0 °F 85% 29.64 in 10.0 mi NE 9.2 mph - N/A   Overcast
12:25 AM 8.6 °F -5.5 °F 5.0 °F 85% 29.64 in 10.0 mi NNE 10.4 mph - N/A   Scattered Clouds
12:45 AM 8.6 °F -4.7 °F 5.0 °F 85% 29.65 in 10.0 mi North 9.2 mph - N/A   Scattered Clouds
1:05 AM 8.6 °F -1.3 °F 5.0 °F 85% 29.66 in 10.0 mi North 5.8 mph - N/A   Clear
1:25 AM 8.6 °F 2.0 °F 5.0 °F 85% 29.66 in 10.0 mi West 3.5 mph - N/A   Mostly Cloudy
1:45 AM 6.8 °F -3.5 °F 5.0 °F 92% 29.66 in 10.0 mi NNW 5.8 mph - N/A   Overcast
2:05 AM 6.8 °F -3.5 °F 5.0 °F 92% 29.67 in 10.0 mi NNE 5.8 mph - N/A   Mostly Cloudy
2:25 AM 6.8 °F -5.9 °F 5.0 °F 92% 29.69 in 10.0 mi NNE 8.1 mph - N/A   Clear
2:45 AM 6.8 °F -4.8 °F 3.2 °F 85% 29.69 in 10.0 mi NE 6.9 mph - N/A   Clear
3:05 AM 5.0 °F -11.6 °F 3.2 °F 92% 29.70 in 10.0 mi NNE 12.7 mph - N/A   Clear
3:25 AM 6.8 °F -8.6 °F 3.2 °F 85% 29.71 in 10.0 mi North 11.5 mph - N/A   Clear
3:45 AM 5.0 °F -10.0 °F 3.2 °F 92% 29.71 in 10.0 mi North 10.4 mph - N/A   Clear
4:05 AM 6.8 °F -9.3 °F 3.2 °F 85% 29.71 in 10.0 mi NNE 12.7 mph 18.4 mph N/A   Clear
4:25 AM 5.0 °F -8.1 °F 3.2 °F 92% 29.72 in 10.0 mi NNE 8.1 mph - N/A   Clear
4:45 AM 5.0 °F -8.1 °F 3.2 °F 92% 29.72 in 10.0 mi ENE 8.1 mph - N/A   Clear
5:05 AM 5.0 °F -11.6 °F 3.2 °F 92% 29.72 in 10.0 mi NE 12.7 mph - N/A   Clear
5:25 AM 6.8 °F -9.3 °F 3.2 °F 85% 29.74 in 10.0 mi NNE 12.7 mph 18.4 mph N/A   Clear
5:45 AM 5.0 °F -10.0 °F 3.2 °F 92% 29.75 in 10.0 mi NE 10.4 mph - N/A   Clear
6:05 AM 5.0 °F -8.1 °F 3.2 °F 92% 29.76 in 10.0 mi NNE 8.1 mph - N/A   Clear
6:25 AM 5.0 °F -6.9 °F 1.4 °F 85% 29.77 in 10.0 mi NE 6.9 mph - N/A   Clear
6:45 AM 5.0 °F -5.6 °F 1.4 °F 85% 29.79 in 10.0 mi NNE 5.8 mph - N/A   Clear
7:05 AM 3.2 °F -9.1 °F 1.4 °F 92% 29.79 in 10.0 mi NNE 6.9 mph - N/A   Clear
7:25 AM 5.0 °F -10.0 °F 1.4 °F 85% 29.80 in 10.0 mi NNE 10.4 mph - N/A   Clear
7:45 AM 5.0 °F -10.0 °F 3.2 °F 92% 29.81 in 10.0 mi NNE 10.4 mph - N/A   Clear
8:05 AM 5.0 °F -6.9 °F 3.2 °F 92% 29.82 in 10.0 mi NE 6.9 mph - N/A   Clear
8:25 AM 6.8 °F -5.9 °F 3.2 °F 85% 29.84 in 10.0 mi NE 8.1 mph - N/A   Clear
8:45 AM 8.6 °F -5.5 °F 5.0 °F 85% 29.84 in 10.0 mi NE 10.4 mph - N/A   Clear
9:05 AM 8.6 °F -7.0 °F 5.0 °F 85% 29.85 in 10.0 mi NE 12.7 mph - N/A   Clear
9:25 AM 10.4 °F -3.3 °F 5.0 °F 79% 29.87 in 10.0 mi NE 10.4 mph - N/A   Clear
9:45 AM 10.4 °F 4.0 °F 6.8 °F 85% 29.89 in 10.0 mi ENE 3.5 mph - N/A   Clear
10:05 AM 10.4 °F - 6.8 °F 85% 29.91 in 10.0 mi Calm Calm - N/A   Clear
10:25 AM 10.4 °F 2.2 °F 5.0 °F 79% 29.91 in 10.0 mi NNE 4.6 mph - N/A   Clear
10:45 AM 12.2 °F - 6.8 °F 79% 29.92 in 10.0 mi Calm Calm - N/A   Clear
11:04 AM 12.2 °F 6.1 °F 6.8 °F 79% 29.92 in 10.0 mi SE 3.5 mph - N/A   Scattered Clouds
11:25 AM 14.0 °F - 10.4 °F 86% 29.92 in 5.0 mi Calm Calm - N/A Snow Light Snow
11:44 AM 14.0 °F 3.9 °F 10.4 °F 86% 29.92 in 5.0 mi SSW 6.9 mph - N/A Snow Light Snow
12:05 PM 14.0 °F 3.9 °F 10.4 °F 86% 29.92 in 2.0 mi SSW 6.9 mph - N/A Snow Light Snow
12:25 PM 12.2 °F 2.9 °F 8.6 °F 85% 29.91 in 1.5 mi SW 5.8 mph - N/A Snow Light Snow
12:44 PM 12.2 °F 1.7 °F 10.4 °F 92% 29.91 in 2.5 mi SSW 6.9 mph - N/A Snow Light Snow
1:05 PM 12.2 °F 1.7 °F 10.4 °F 92% 29.91 in 7.0 mi SW 6.9 mph - N/A Snow Light Snow
1:24 PM 14.0 °F 3.9 °F 10.4 °F 86% 29.91 in 10.0 mi SSW 6.9 mph - N/A Snow Light Snow
1:45 PM 14.0 °F 5.1 °F 10.4 °F 86% 29.91 in 7.0 mi SW 5.8 mph - N/A Snow Light Snow
2:05 PM 14.0 °F 2.0 °F 10.4 °F 86% 29.91 in 7.0 mi SSW 9.2 mph 16.1 mph N/A Snow Light Snow
2:25 PM 12.2 °F 0.7 °F 8.6 °F 85% 29.91 in 7.0 mi SW 8.1 mph - N/A Snow Light Snow
2:45 PM 10.4 °F -4.1 °F 8.6 °F 92% 29.92 in 4.0 mi SW 11.5 mph - N/A Snow Light Snow
3:05 PM 14.0 °F 1.2 °F 10.4 °F 86% 29.93 in 3.0 mi SW 10.4 mph 17.3 mph N/A   Mostly Cloudy
3:24 PM 12.2 °F -1.8 °F 10.4 °F 92% 29.92 in 0.2 mi SW 11.5 mph - N/A Fog Light Freezing Fog
3:45 PM 10.4 °F -6.6 °F 8.6 °F 92% 29.94 in 0.2 mi SW 16.1 mph - N/A Snow Heavy Snow
4:04 PM 8.6 °F -8.9 °F 5.0 °F 85% 29.94 in 0.2 mi WSW 16.1 mph - N/A Snow Snow
4:25 PM 8.6 °F -8.3 °F 5.0 °F 85% 29.94 in 7.0 mi WSW 15.0 mph 20.7 mph N/A   Mostly Cloudy
4:45 PM 8.6 °F -7.7 °F 5.0 °F 85% 29.94 in 10.0 mi WSW 13.8 mph - N/A   Clear
5:05 PM 8.6 °F -7.0 °F 3.2 °F 79% 29.94 in 10.0 mi WSW 12.7 mph - N/A   Clear
5:45 PM 6.8 °F -10.0 °F 3.2 °F 85% 29.94 in 10.0 mi SW 13.8 mph - N/A   Clear
6:05 PM 5.0 °F -11.6 °F 3.2 °F 92% 29.94 in 10.0 mi SSW 12.7 mph - N/A   Clear
6:25 PM 6.8 °F -8.6 °F 3.2 °F 85% 29.94 in 10.0 mi SW 11.5 mph - N/A   Clear
6:45 PM 8.6 °F -5.5 °F 3.2 °F 79% 29.94 in 10.0 mi SW 10.4 mph - N/A   Clear
7:05 PM 8.6 °F -3.7 °F 3.2 °F 79% 29.95 in 10.0 mi WSW 8.1 mph - N/A   Clear
7:25 PM 10.4 °F -4.1 °F 3.2 °F 73% 29.96 in 10.0 mi SW 11.5 mph - N/A   Clear
7:45 PM 10.4 °F -6.0 °F 3.2 °F 73% 29.95 in 10.0 mi SW 15.0 mph - N/A   Clear
8:05 PM 10.4 °F -6.6 °F 3.2 °F 73% 29.96 in 10.0 mi SW 16.1 mph - N/A   Clear
8:25 PM 10.4 °F -5.4 °F 3.2 °F 73% 29.95 in 10.0 mi SSW 13.8 mph - N/A   Clear
8:45 PM 8.6 °F -7.7 °F 3.2 °F 79% 29.95 in 10.0 mi SSW 13.8 mph - N/A   Clear
9:05 PM 8.6 °F -8.9 °F 3.2 °F 79% 29.94 in 10.0 mi SW 16.1 mph - N/A   Clear
9:25 PM 8.6 °F -7.7 °F 5.0 °F 85% 29.94 in 10.0 mi SW 13.8 mph - N/A   Clear
9:45 PM 10.4 °F -0.4 °F 3.2 °F 73% 29.94 in 10.0 mi SW 6.9 mph - N/A   Clear
10:05 PM 10.4 °F -4.8 °F 1.4 °F 67% 29.94 in 10.0 mi SW 12.7 mph - N/A   Clear
10:25 PM 8.6 °F -8.3 °F 3.2 °F 79% 29.94 in 10.0 mi SSW 15.0 mph - N/A   Clear
10:45 PM 8.6 °F -10.5 °F 3.2 °F 79% 29.94 in 10.0 mi SW 19.6 mph - N/A   Clear
11:05 PM 10.4 °F -8.6 °F 3.2 °F 73% 29.94 in 10.0 mi SW 20.7 mph - N/A   Clear
11:25 PM 8.6 °F -9.5 °F 3.2 °F 79% 29.94 in 10.0 mi SW 17.3 mph - N/A   Clear
11:45 PM 8.6 °F -9.5 °F 1.4 °F 73% 29.94 in 10.0 mi SW 17.3 mph - N/A   Clear